Location: Black Swamp Observatory
(41.3920°N, 84.1250°W)
Time: 04:33:14
(UTC-04:00)

Courier 1B Rocket - Pass Details

Date: 23 January 2022
Orbit: 920 x 1202 km, 28.2° (Epoch: 28 May)

Event Time Altitude Azimuth Distance (km) Brightness Sun altitude
Exits shadow 05:42:27 22° 208° (SSW) 2,011 6.4 -24.8°
Maximum altitude 05:43:53 23° 190° (S) 1,918 6.5 -24.6°
Drops below altitude 10° 05:48:47 10° 139° (SE) 2,653 7.9 -23.7°
Sets 05:51:52 0° 126° (SE) 3,570 8.9 -23.1°
